TimeMST,TemperatureF,Dew PointF,Humidity,Sea Level PressureIn,VisibilityMPH,Wind Direction,Wind SpeedMPH,Gust SpeedMPH,PrecipitationIn,Events,Conditions,WindDirDegrees,DateUTC
12:33 AM,6.8,3.2,85,30.06,10.0,NNW,16.1,32.2,N/A,,Overcast,340,2012-12-09 07:33:00
12:44 AM,6.8,3.2,85,30.06,9.0,NNW,18.4,28.8,N/A,,Overcast,330,2012-12-09 07:44:00
12:53 AM,7.0,3.0,84,30.24,9.0,NNW,16.1,25.3,N/A,,Overcast,330,2012-12-09 07:53:00
1:26 AM,6.8,3.2,85,30.08,9.0,NNW,11.5,24.2,N/A,,Mostly Cloudy,330,2012-12-09 08:26:00
1:53 AM,7.0,3.0,84,30.27,4.0,NNW,11.5,-,0.00,Snow,Light Snow,330,2012-12-09 08:53:00
2:17 AM,6.8,3.2,85,30.09,4.0,NNW,10.4,-,0.00,,Overcast,330,2012-12-09 09:17:00
2:24 AM,8.6,3.2,79,30.10,5.0,NW,12.7,-,0.00,,Mostly Cloudy,320,2012-12-09 09:24:00
2:53 AM,6.1,3.0,87,30.31,10.0,North,15.0,23.0,0.00,,Mostly Cloudy,350,2012-12-09 09:53:00
3:28 AM,6.8,3.2,85,30.11,6.0,North,13.8,26.5,0.00,Snow,Light Snow,350,2012-12-09 10:28:00
3:36 AM,6.8,3.2,85,30.11,5.0,North,13.8,21.9,0.00,Snow,Light Snow,350,2012-12-09 10:36:00
3:43 AM,6.8,3.2,85,30.11,7.0,North,13.8,23.0,0.00,Snow,Light Snow,350,2012-12-09 10:43:00
3:53 AM,7.0,3.9,87,30.33,10.0,NNW,11.5,24.2,0.00,,Mostly Cloudy,340,2012-12-09 10:53:00
4:53 AM,8.1,3.9,83,30.36,10.0,NNW,8.1,-,N/A,,Overcast,340,2012-12-09 11:53:00
5:53 AM,6.1,1.9,83,30.40,10.0,NNW,6.9,-,N/A,,Partly Cloudy,340,2012-12-09 12:53:00
6:53 AM,1.9,-2.0,83,30.44,10.0,West,4.6,-,N/A,,Clear,280,2012-12-09 13:53:00
7:53 AM,3.9,-2.0,76,30.44,10.0,Calm,Calm,-,N/A,,Clear,0,2012-12-09 14:53:00
8:10 AM,3.2,-0.4,85,30.20,10.0,South,4.6,-,N/A,,Partly Cloudy,190,2012-12-09 15:10:00
8:53 AM,7.0,3.0,84,30.45,10.0,SSE,3.5,-,N/A,,Clear,160,2012-12-09 15:53:00
9:53 AM,10.0,5.0,80,30.45,10.0,SE,5.8,-,N/A,,Clear,130,2012-12-09 16:53:00
10:53 AM,12.9,3.9,67,30.43,10.0,SE,5.8,-,N/A,,Clear,130,2012-12-09 17:53:00
11:53 AM,16.0,5.0,62,30.38,10.0,SE,10.4,-,N/A,,Clear,140,2012-12-09 18:53:00
12:53 PM,18.0,6.1,60,30.33,10.0,SSE,10.4,-,N/A,,Clear,160,2012-12-09 19:53:00
1:53 PM,19.0,7.0,59,30.30,10.0,SSE,11.5,-,N/A,,Clear,150,2012-12-09 20:53:00
2:53 PM,19.9,7.0,57,30.28,10.0,SSE,10.4,-,N/A,,Clear,150,2012-12-09 21:53:00
3:53 PM,18.0,8.1,65,30.26,10.0,SSE,10.4,-,N/A,,Clear,160,2012-12-09 22:53:00
4:53 PM,14.0,6.1,71,30.25,10.0,SSE,8.1,-,N/A,,Clear,160,2012-12-09 23:53:00
5:53 PM,10.9,3.9,73,30.22,10.0,SW,4.6,-,N/A,,Clear,230,2012-12-10 00:53:00
6:53 PM,10.9,3.0,70,30.18,10.0,SSW,3.5,-,N/A,,Clear,210,2012-12-10 01:53:00
7:53 PM,9.0,1.9,73,30.15,10.0,WNW,5.8,-,N/A,,Clear,290,2012-12-10 02:53:00
8:53 PM,15.1,3.9,61,30.09,10.0,NW,5.8,-,N/A,,Scattered Clouds,320,2012-12-10 03:53:00
9:53 PM,18.0,3.0,52,30.04,10.0,West,3.5,-,N/A,,Overcast,280,2012-12-10 04:53:00
10:53 PM,19.9,1.9,46,30.01,10.0,Calm,Calm,-,N/A,,Overcast,0,2012-12-10 05:53:00
11:53 PM,19.9,3.9,50,29.99,10.0,South,4.6,-,N/A,,Overcast,190,2012-12-10 06:53:00